CZ-3C DEB, 40174

Orbit data source: Space-Track

CZ-3C DEB, 40174 is space debris in HEO originally from a launch on Sun, 31 Oct 2010 UTC launched from the Xichang Space Center, China (XSC). Debris objects in space refer to the collection of defunct objects orbiting the Earth. Examples of debris include non-operational satellites, rocket bodies, and fragments generated from explosions, collisions, or faulty payload assembly.

Loading next visibility...
Identifier
40174, 2010-057AC
Orbit
HEO
Country
Flag of CNCN / PRC
Related business
Manufacturer
CALT
Mission
Spacecraft
Bus & Motor
Unknown
Mass
Unknown
Launch date (UTC)
2010-10-31 (15 years ago)
Launch vehicle
Unknown
Launch site
Xichang Space Center, China (XSC)
Object type
Payload
Rocket body
Debris
Shape & HBR
Unknown
Radar Cross Section
Medium (>0.1 m² and <1 m²)

Expand to show TLE details & history
Last TLE update: 2 days ago

TLE from 2 days ago
0 CZ-3C DEB
1 40174U 10057AC  25240.89509225  .00000008  00000-0  24748-2 0  9997
2 40174  20.3295  52.4809 7086338 254.2673  18.9129  2.34848159 93625
Epoch: 2025-08-28T21:28Z
TLE epoch observation values (Epoch: 2025-08-28T21:28:55.97Z)
Latitude
-3.15285°
Longitude
104.40411°
Altitude
6,575.662 km
Speed
6.698 km/s
True Right ascension
02h 55m 57s
True Declination
-3° 08' 33"
Sunlit
Object was in daylight at epoch
Visualization orbit readout
Latitude
Unknown
Longitude
Unknown
Altitude
Unknown
Speed
Unknown
Apparent Right ascension
Unknown
Apparent Declination
Unknown
Sunlit
N/A
Visualization observer readout
Local Sidereal Time
16:52:45
Azimuth
Unknown
Elevation
Unknown
Doppler factor
Unknown
Orbital elements
Apogee altitude
34,479.29 km
Perigee altitude
589.11 km
Semi-major axis
23,912.337 km
Eccentricity
0.70863
Inclination
20.3295°
RAAN
52.4809°
Arg. of periapsis
254.2673°
True anomaly
96.98294°
Mean anomaly
18.9129°
Eccentric anomaly
50.02869°
Mean motion
0.58696 °/min
Orbital period
613.33 mins
BSTAR
0.0024748
Loading maneuver chart data...
Computing Atmospheric mass density...
Loading historical data...
Loading historical data...
Loading historical data...
Loading historical data...
Loading historical data...
Loading historical data...
Loading historical data...

Documentation

Showing up to 5 results
|